DW9620 Weather Reports


Display with metric or nautical units.
time (UTC)temp
F
wind
direction
speed
MPH
gust
MPH
rain 1hr
in
rain 24hr
in
rain mn
in
humidity
%
barometer
mb
20260507085004 39 264 0.0 0.0 0.00 0.43 0.00 88 1013.6
20260507084504 39 260 0.0 0.0 0.00 0.43 0.00 88 1013.6
20260507084004 38 261 0.0 0.0 0.00 0.43 0.00 87 1013.7
20260507083504 38 263 0.0 0.0 0.00 0.43 0.00 87 1013.6
20260507083004 39 270 0.0 0.0 0.00 0.43 0.00 87 1013.6
20260507082504 39 258 0.0 0.0 0.00 0.43 0.00 87 1013.5
20260507082004 39 264 0.0 0.0 0.00 0.43 0.00 87 1013.6
20260507081004 39 256 0.0 0.0 0.00 0.43 0.00 87 1013.6
20260507080504 39 262 0.0 0.0 0.00 0.43 0.00 87 1013.6
20260507080004 39 260 0.0 0.0 0.00 0.43 0.00 87 1013.6
20260507075503 39 263 0.0 0.0 0.00 0.43 0.00 87 1013.5
20260507075004 39 265 0.0 0.0 0.00 0.43 0.00 87 1013.5
20260507074504 40 263 0.0 0.0 0.00 0.43 0.00 87 1013.5
20260507074004 40 263 0.0 0.0 0.00 0.43 0.00 87 1013.5
20260507073504 40 263 0.0 0.0 0.00 0.43 0.00 87 1013.5
20260507073004 40 260 0.0 0.0 0.00 0.44 0.00 87 1013.5
20260507072504 41 265 0.0 0.0 0.00 0.44 0.00 87 1013.5
20260507072004 41 265 0.0 0.0 0.00 0.44 0.00 87 1013.4
20260507071504 41 258 0.0 0.0 0.00 0.44 0.00 88 1013.4
20260507071004 41 264 0.0 0.0 0.00 0.44 0.00 88 1013.4
20260507070504 41 255 0.0 0.0 0.00 0.44 0.00 88 1013.4
20260507065505 41 263 0.0 0.0 0.00 0.44 0.00 87 1013.5
20260507065004 41 259 0.0 0.0 0.00 0.44 0.00 87 1013.6
20260507064504 41 256 0.0 0.0 0.00 0.44 0.00 87 1013.7
20260507064005 41 260 0.0 0.0 0.00 0.44 0.00 87 1013.7
20260507063504 42 254 0.0 0.0 0.00 0.45 0.00 87 1013.7
20260507063004 42 256 0.0 0.0 0.00 0.45 0.00 87 1013.7
20260507062504 42 257 0.0 0.0 0.00 0.45 0.00 87 1013.6
20260507062004 42 254 0.0 0.0 0.00 0.45 0.00 87 1013.5
20260507061004 42 254 0.0 0.0 0.00 0.45 0.00 87 1013.7
20260507060004 42 255 0.0 0.0 0.00 0.45 0.00 86 1013.7
20260507055504 42 254 0.0 0.0 0.00 0.45 0.00 87 1013.7
20260507055004 42 256 0.0 0.0 0.00 0.45 0.00 87 1013.7
20260507054504 42 258 0.0 0.0 0.00 0.45 0.00 86 1013.8
20260507054004 42 254 0.0 0.0 0.00 0.45 0.00 86 1013.6
20260507053504 42 258 0.0 0.0 0.00 0.46 0.00 86 1013.6
20260507052504 43 256 0.0 0.0 0.00 0.46 0.00 86 1013.7
20260507052004 43 254 0.0 0.0 0.00 0.46 0.00 86 1013.8
20260507051504 43 254 0.0 0.0 0.00 0.46 0.00 86 1013.9
20260507051004 43 254 0.0 0.0 0.00 0.46 0.00 86 1013.9
20260507050504 43 256 0.0 0.0 0.00 0.46 0.00 85 1014.0
20260507050005 43 254 0.0 0.0 0.00 0.46 0.00 85 1013.9
20260507045504 43 254 0.0 0.0 0.00 0.47 0.00 85 1014.0
20260507045004 43 254 0.0 0.0 0.00 0.47 0.00 84 1014.0
20260507044504 43 256 0.0 0.0 0.00 0.47 0.00 84 1013.9
20260507044004 43 254 0.0 0.0 0.00 0.47 0.00 84 1013.9
20260507043504 44 256 0.0 0.0 0.00 0.47 0.00 84 1013.9
20260507043004 44 254 0.0 0.0 0.00 0.47 0.00 84 1014.0
20260507042004 44 254 0.0 0.0 0.00 0.47 0.00 85 1013.9
20260507041504 45 254 0.0 0.0 0.00 0.47 0.00 85 1013.8
20260507041004 45 254 0.0 0.0 0.00 0.47 0.00 85 1013.8
20260507040504 45 254 0.0 0.0 0.00 0.47 0.00 84 1013.8
20260507040004 45 254 0.0 0.0 0.00 0.47 0.00 84 1013.8
20260507035004 45 254 0.0 0.0 0.00 0.47 0.47 83 1013.9
20260507034505 45 254 0.0 0.0 0.00 0.47 0.47 82 1013.9
20260507034004 45 254 0.0 0.0 0.00 0.48 0.47 82 1014.0
20260507033504 45 254 0.0 0.0 0.00 0.48 0.47 83 1013.8
20260507033004 45 258 0.0 0.0 0.00 0.48 0.47 82 1013.9
20260507032504 45 254 0.0 0.0 0.00 0.48 0.47 81 1013.8
20260507032004 45 254 0.0 0.0 0.00 0.48 0.47 81 1013.8
20260507031504 46 254 0.0 0.0 0.00 0.48 0.47 81 1013.9
20260507031004 46 254 0.0 0.0 0.00 0.48 0.47 81 1013.9
20260507030004 46 254 0.0 0.0 0.00 0.48 0.47 79 1014.1
20260507025504 46 254 0.0 0.0 0.00 0.49 0.47 79 1014.1
20260507025005 47 254 0.0 0.0 0.00 0.49 0.47 78 1013.9
20260507024504 47 254 0.0 0.0 0.00 0.49 0.47 78 1014.0
20260507023505 47 254 0.0 0.0 0.00 0.49 0.47 78 1013.8
20260507022004 48 254 0.0 0.0 0.00 0.49 0.47 78 1013.9
20260507021504 48 254 0.0 0.0 0.00 0.49 0.47 78 1013.9
20260507021004 49 254 0.0 0.0 0.00 0.49 0.47 78 1013.9
20260507020504 49 254 0.0 0.0 0.00 0.49 0.47 78 1013.8
20260507020004 49 254 0.0 0.0 0.00 0.49 0.47 77 1013.8
20260507015504 49 254 0.0 0.0 0.00 0.50 0.47 74 1013.8
20260507015004 49 254 0.0 0.0 0.00 0.50 0.47 76 1013.7
20260507014504 50 254 0.0 0.0 0.00 0.50 0.47 75 1013.6
20260507014005 50 254 0.0 0.0 0.00 0.50 0.47 74 1013.6
20260507013504 50 254 0.0 1.0 0.00 0.50 0.47 76 1013.4
20260507012504 51 254 0.0 1.0 0.00 0.50 0.47 74 1013.3
20260507012004 51 254 0.0 2.0 0.00 0.50 0.47 72 1013.2
20260507011504 51 254 0.0 2.0 0.00 0.51 0.47 74 1013.4
20260507010504 52 50 0.0 0.0 0.00 0.51 0.47 73 1013.4
20260507005504 53 10 0.0 0.0 0.00 0.51 0.47 69 1013.3
20260507005004 53 10 0.0 2.0 0.00 0.51 0.47 66 1013.1
20260507004504 53 10 0.0 2.0 0.00 0.51 0.47 65 1013.2
20260507004004 54 10 0.0 1.0 0.00 0.51 0.47 64 1013.1
20260507003504 54 10 0.0 3.0 0.00 0.51 0.47 61 1013.3
20260507003004 54 7 1.0 5.0 0.00 0.51 0.47 60 1012.9
20260507002504 55 5 2.0 5.0 0.00 0.51 0.47 59 1012.9
20260507002004 55 7 1.0 6.0 0.00 0.52 0.47 58 1013.0
20260507001504 55 2 3.0 6.0 0.00 0.52 0.47 58 1013.1
20260507000504 56 3 3.0 8.0 0.00 0.52 0.47 56 1012.6
20260507000004 56 12 3.0 9.0 0.00 0.52 0.47 57 1012.6
20260506235505 56 0 5.0 9.0 0.00 0.52 0.47 55 1012.4
20260506234504 56 4 5.0 12.0 0.00 0.53 0.47 55 1012.5
20260506234004 56 6 6.0 12.0 0.00 0.53 0.47 55 1012.5
20260506233504 57 19 3.0 9.0 0.00 0.53 0.47 54 1012.4
20260506233004 57 15 5.0 9.0 0.00 0.53 0.47 54 1012.4
20260506232504 57 9 3.0 12.0 0.00 0.53 0.47 54 1012.2
20260506232004 57 22 6.0 12.0 0.00 0.53 0.47 55 1012.2
20260506231504 56 7 4.0 12.0 0.00 0.53 0.47 54 1012.1
20260506231004 56 5 7.0 12.0 0.00 0.53 0.47 53 1012.3
20260506230504 56 4 5.0 12.0 0.00 0.53 0.47 53 1012.3
20260506230004 56 5 7.0 10.0 0.00 0.54 0.47 55 1012.4
20260506225503 57 21 4.0 12.0 0.00 0.54 0.47 56 1012.3
20260506225004 57 1 7.0 12.0 0.00 0.54 0.47 54 1012.4
20260506224504 57 10 3.0 9.0 0.00 0.54 0.47 57 1012.5
20260506224004 57 6 3.0 10.0 0.00 0.54 0.47 56 1012.6
20260506223504 57 8 5.0 10.0 0.00 0.54 0.47 55 1012.6
20260506223004 57 2 6.0 12.0 0.00 0.54 0.47 55 1012.7
20260506222504 57 3 6.0 12.0 0.00 0.55 0.47 55 1012.7
20260506221005 57 1 6.0 12.0 0.00 0.55 0.47 57 1012.7
20260506220004 57 14 7.0 13.0 0.00 0.55 0.47 55 1012.8
20260506215504 57 349 3.0 12.0 0.00 0.55 0.47 57 1012.8
20260506215005 57 350 5.0 12.0 0.00 0.55 0.47 56 1012.6
20260506214504 57 353 3.0 12.0 0.00 0.55 0.47 57 1012.6
20260506214004 57 2 5.0 10.0 0.00 0.55 0.47 55 1012.5
20260506213504 57 5 5.0 10.0 0.00 0.55 0.47 54 1012.5
20260506213004 57 343 5.0 12.0 0.00 0.55 0.47 54 1012.5
20260506212504 57 3 6.0 13.0 0.00 0.55 0.47 53 1012.3
20260506212004 57 355 9.0 13.0 0.00 0.56 0.47 53 1012.2
20260506211504 57 17 7.0 12.0 0.00 0.56 0.47 52 1012.2
20260506211004 58 1 6.0 12.0 0.00 0.56 0.47 52 1012.3
20260506210504 58 346 5.0 13.0 0.00 0.56 0.47 53 1012.2
20260506210004 58 331 7.0 13.0 0.00 0.56 0.47 54 1012.1
20260506204504 58 4 6.0 12.0 0.00 0.56 0.47 53 1012.2
20260506204004 58 4 5.0 10.0 0.00 0.57 0.47 54 1012.2
20260506203504 58 15 3.0 12.0 0.00 0.57 0.47 59 1012.2
20260506203004 58 1 5.0 12.0 0.00 0.57 0.47 55 1012.2
20260506202503 58 341 9.0 12.0 0.00 0.58 0.47 55 1012.1
20260506201504 58 354 6.0 12.0 0.00 0.63 0.47 56 1012.2
20260506200504 58 329 9.0 16.0 0.00 0.63 0.47 55 1012.3
20260506200004 58 1 7.0 16.0 0.00 0.63 0.47 54 1012.3
20260506195504 58 350 10.0 16.0 0.00 0.63 0.47 55 1012.3
20260506195004 58 0 10.0 15.0 0.00 0.63 0.47 56 1012.2
20260506194505 59 324 8.0 15.0 0.00 0.63 0.47 55 1012.0
20260506194004 59 336 10.0 15.0 0.00 0.63 0.47 55 1011.9
20260506193504 59 331 5.0 13.0 0.00 0.63 0.47 54 1011.8
20260506193004 59 308 5.0 12.0 0.00 0.63 0.47 53 1011.9
20260506192504 59 336 5.0 12.0 0.00 0.63 0.47 55 1011.9
20260506191504 59 350 6.0 12.0 0.00 0.63 0.47 53 1012.0
20260506190505 59 334 5.0 13.0 0.00 0.63 0.47 51 1011.9
20260506190004 59 8 3.0 10.0 0.00 0.63 0.47 54 1011.7
20260506185504 59 31 6.0 15.0 0.00 0.63 0.47 51 1011.7
20260506185004 59 320 7.0 16.0 0.00 0.63 0.47 53 1011.8
20260506183503 59 43 3.0 12.0 0.00 0.63 0.47 53 1011.8
20260506183004 59 23 3.0 10.0 0.00 0.63 0.47 54 1011.9
20260506181504 58 355 5.0 10.0 0.00 0.63 0.47 59 1011.9
20260506181004 58 349 6.0 10.0 0.00 0.63 0.47 58 1011.8
20260506180503 58 49 3.0 9.0 0.00 0.63 0.47 60 1011.9
20260506180005 57 42 4.0 15.0 0.00 0.63 0.47 58 1012.1
20260506175503 57 6 8.0 15.0 0.00 0.63 0.47 56 1012.1
20260506175004 57 345 11.0 14.0 0.00 0.63 0.47 55 1012.2
20260506173005 57 334 6.0 12.0 0.00 0.63 0.47 56 1012.2
20260506172505 57 40 5.0 12.0 0.00 0.63 0.47 56 1012.2
20260506172004 57 328 1.0 13.0 0.00 0.63 0.47 59 1012.2
20260506171504 57 10 7.0 13.0 0.00 0.63 0.47 56 1012.3
20260506171005 56 34 3.0 13.0 0.00 0.63 0.47 54 1012.2
20260506170004 56 16 6.0 15.0 0.01 0.63 0.47 53 1012.3
20260506165504 56 0 4.0 15.0 0.03 0.63 0.47 55 1012.3
20260506165004 56 48 5.0 12.0 0.06 0.63 0.47 58 1012.3
20260506164504 55 4 4.0 12.0 0.09 0.63 0.47 56 1012.3
20260506164004 55 30 6.0 12.0 0.13 0.63 0.47 56 1012.3
20260506163504 55 349 5.0 12.0 0.17 0.63 0.47 60 1012.3
20260506163005 55 12 7.0 12.0 0.20 0.63 0.47 58 1012.4
20260506162005 55 55 3.0 8.0 0.26 0.63 0.47 63 1012.1
20260506161504 54 9 3.0 10.0 0.28 0.63 0.47 63 1012.1
20260506160504 54 40 5.0 12.0 0.31 0.63 0.47 64 1012.1
20260506160004 54 7 5.0 9.0 0.32 0.62 0.46 63 1012.1
20260506155504 54 11 2.0 12.0 0.30 0.60 0.44 67 1012.2
20260506155004 53 45 6.0 12.0 0.28 0.57 0.41 66 1012.4
20260506154504 53 43 6.0 14.0 0.26 0.54 0.38 64 1012.4
20260506154004 53 13 7.0 14.0 0.23 0.50 0.34 65 1012.5
20260506153504 52 359 3.0 14.0 0.20 0.46 0.30 69 1012.3
20260506153004 52 26 4.0 10.0 0.17 0.43 0.27 69 1012.1
20260506152504 52 27 6.0 12.0 0.14 0.40 0.24 69 1012.1
20260506152004 52 31 6.0 12.0 0.12 0.37 0.21 68 1012.2
20260506150004 51 13 2.0 9.0 0.06 0.30 0.14 77 1011.8
20260506145005 50 351 6.0 12.0 0.06 0.29 0.13 75 1011.4
20260506144505 50 51 3.0 10.0 0.05 0.28 0.12 75 1011.4
20260506144004 50 347 6.0 12.0 0.04 0.27 0.11 75 1011.5
20260506143004 50 16 9.0 14.0 0.03 0.26 0.10 75 1011.2
20260506142504 50 356 9.0 12.0 0.03 0.26 0.10 76 1011.1
20260506141004 49 348 5.0 12.0 0.01 0.24 0.08 78 1011.2
20260506140504 49 347 6.0 10.0 0.01 0.24 0.08 79 1011.1
20260506140004 49 36 5.0 10.0 0.02 0.24 0.08 78 1011.1
20260506135504 49 343 4.0 13.0 0.02 0.24 0.08 79 1011.1
20260506135004 49 50 6.0 13.0 0.01 0.23 0.07 79 1011.2
20260506134004 48 15 6.0 10.0 0.01 0.23 0.07 79 1010.8
20260506133504 48 12 5.0 12.0 0.01 0.23 0.07 81 1010.7
20260506133004 48 27 5.0 12.0 0.01 0.23 0.07 80 1010.7
20260506132503 48 34 5.0 12.0 0.01 0.23 0.07 80 1010.8
20260506131504 47 3 5.0 14.0 0.01 0.23 0.07 81 1010.6
20260506131004 47 11 7.0 14.0 0.01 0.23 0.07 80 1010.5
20260506130504 47 359 5.0 12.0 0.01 0.23 0.07 82 1010.5
20260506130005 47 5 5.0 12.0 0.00 0.22 0.06 82 1010.7
20260506125504 47 9 5.0 12.0 0.00 0.22 0.06 84 1010.7
20260506125004 47 8 3.0 12.0 0.00 0.22 0.06 85 1010.7
20260506124504 46 14 6.0 12.0 0.00 0.22 0.06 84 1010.6
20260506124005 46 356 6.0 12.0 0.00 0.22 0.06 84 1010.4
20260506123504 46 354 7.0 12.0 0.00 0.22 0.06 85 1010.4
20260506122504 46 4 5.0 8.0 0.00 0.22 0.06 86 1010.4
20260506122004 46 1 5.0 8.0 0.00 0.22 0.06 86 1010.2
20260506121004 46 16 1.0 8.0 0.00 0.22 0.06 86 1009.8
20260506120504 45 8 3.0 8.0 0.00 0.22 0.06 86 1009.6
20260506120004 45 3 1.0 6.0 0.00 0.22 0.06 86 1009.6
20260506115503 45 358 3.0 6.0 0.00 0.22 0.06 86 1009.6
20260506114504 45 0 3.0 7.0 0.01 0.22 0.06 86 1009.5
20260506113004 45 11 3.0 9.0 0.01 0.22 0.06 87 1009.2
20260506112504 45 2 5.0 9.0 0.01 0.22 0.06 87 1009.1
20260506112004 45 133 3.0 9.0 0.01 0.22 0.06 87 1009.4
20260506111504 45 357 4.0 9.0 0.01 0.22 0.06 87 1009.2
20260506111005 45 356 3.0 10.0 0.01 0.22 0.06 87 1008.6
20260506110504 45 3 6.0 10.0 0.01 0.22 0.06 87 1008.6
20260506110004 45 348 5.0 10.0 0.01 0.22 0.06 87 1008.6
20260506105504 45 1 4.0 10.0 0.01 0.22 0.06 87 1008.6
20260506105004 45 344 4.0 10.0 0.00 0.21 0.05 88 1008.7
20260506104504 45 349 5.0 10.0 0.00 0.21 0.05 88 1008.3
20260506103504 45 6 5.0 9.0 0.00 0.21 0.05 87 1008.2
20260506103004 45 353 2.0 5.0 0.00 0.21 0.05 88 1008.2
20260506102504 45 10 2.0 5.0 0.01 0.21 0.05 87 1008.0
20260506102004 45 4 1.0 5.0 0.01 0.21 0.05 87 1007.8
20260506101504 45 7 2.0 3.0 0.01 0.21 0.05 87 1007.7
20260506101004 45 67 2.0 5.0 0.01 0.21 0.05 87 1007.6
20260506100505 45 36 1.0 5.0 0.01 0.21 0.05 87 1007.6
20260506100004 45 23 1.0 5.0 0.01 0.21 0.05 87 1007.7
20260506095505 45 54 2.0 12.0 0.01 0.21 0.05 87 1008.0
20260506094504 45 358 3.0 9.0 0.01 0.21 0.05 87 1007.9
20260506094004 45 7 4.0 9.0 0.01 0.21 0.05 87 1007.9
20260506093503 45 11 2.0 10.0 0.01 0.21 0.05 87 1007.7
20260506092504 45 43 3.0 10.0 0.00 0.20 0.04 87 1007.4
20260506092004 45 15 6.0 10.0 0.00 0.20 0.04 87 1007.3
20260506091504 45 29 4.0 12.0 0.00 0.20 0.04 87 1007.3
20260506091004 45 30 6.0 12.0 0.00 0.20 0.04 87 1007.2
20260506090504 45 17 4.0 12.0 0.00 0.20 0.04 87 1007.4
20260506090004 45 37 3.0 12.0 0.00 0.20 0.04 87 1007.5
20260506085504 46 10 7.0 14.0 0.00 0.20 0.04 87 1007.6